User: anonymous
Location: Unspecified
(0.0000°N, 0.0000°E)
Time: 21:35:53
(UTC+02:00)
Language:

Cosmos 1758 - Orbit

View from above orbital plane
View from above orbital plane
View from above satellite
View from above satellite

Ground track
Ground track

The orbit data is extracted from the following two-line orbital elements,

1 16791U 86046A   14260.42523516  .00001927  00000-0  14735-3 0  1263
2 16791 082.4690 288.5395 0016376 256.7827 103.1571 15.01308113534862
Epoch (UTC): 17 September 2014 10:12:20
Eccentricity: 0.0016376
inclination: 82.4690°
perigee height: 551 km
apogee height: 574 km
right ascension of ascending node: 288.5395°
argument of perigee: 256.7827°
revolutions per day: 15.01308113
mean anomaly at epoch: 103.1571°
orbit number at epoch: 53486

The dashed part of the orbit path shows where the satellite is in the earth's shadow,  

DLR